ONEWEB-0526 (54144 NORAD) Tracking and Keplerian Element Data

This shows tracking and keplerian element data for the satellite.

Feedback or suggestion? Click here.




ElementValue
Catalog54144
NameONEWEB-0526
Epoch Orbit525
Epoch Day325.33334491
Epoch Year2022
RAAN207.3957
Inclination87.4477
Eccentricity0.0014978
Argument of Perigee189.7164
Mean Anonmoly234.7259
Mean Motion14.67625166
Decay Rate-0.01012408
L11 54144U 22138AH 22325.33334491 -.01012408 00000+0 -19033+0 0 9990
L22 54144 87.4477 207.3957 0014978 189.7164 234.7259 14.67625166 5253



Live tracking and technical data element details for ONEWEB-0526 (NORAD 54144). ONEWEB-0526 can be tracked NOW for your location showing map with azimuth and elevation plus other details from your city location.







IsCatalogInMostPopularTable: catalog: 54144, numindb: 5
Update: records affected: 1



GetName: 54144 ONEWEB-0526

Hit Count: updated at: Sun, 04 Dec 2022 21:55:42 GMT